Probability
0 0 0 0 0 0 0 0 0 0 0 0 0 0 0 0 0 0 0 0 0 0 0 0 0 0 0 0 0 0 0 0 0 0 0 0 0 0 0 0 0 0 0 0
0 0 0 0 0 0 0 0 0 0 0 0 0 0 0 0 0 0 0 0 0 0 0 0 0 0 0 0 0 0 0 0 0 0 0 0 0 0 0 0 0 0 0 0
0 0 0 0 0 0 0 0 0 0 0 0 0 0 0 0 0 0 0 0 0 0 0 0 0 0 0 0 0 0 0 0 0 0 0 0 0 0 0 0 0 0 0 0
0 0 0 0 0 0 0 0 0 0 0 0 0 0 0 0 0 0 0 0 0 0 0 0 0 0 0 0 0 0 0 0 0 0 0 0 0 0 0 0 0 0 0 0
0 0 0 0 0 0 0 0 0 0 0 0 0 0 0 0 0 0 0 0 0 0 0 0 0 0 0 0 0 0 0 0 0 0 0 0 0 0 0 1 1 1 0 0
0 0 0 0 0 0 0 0 0 0 0 0 0 0 0 0 0 0 0 0 0 0 0 0 0 0 0 0 0 0 0 0 0 0 0 0 0 0 0 1 2 2 1 1
0 0 0 0 0 0 0 0 0 0 0 0 0 0 0 0 0 0 0 0 0 0 0 0 0 0 0 0 0 0 0 0 0 0 0 0 0 0 0 0 1 1 1 2
0 0 0 0 0 0 0 0 0 0 0 0 0 0 0 0 0 0 0 0 0 0 0 0 0 0 0 0 0 0 0 0 0 0 0 0 0 0 0 0 0 0 1 1
0 0 0 0 0 0 0 0 0 0 0 0 0 0 0 0 0 0 0 0 0 0 0 0 0 0 0 0 0 0 0 0 0 0 0 0 0 0 0 0 0 0 0 0
0 0 0 0 0 0 0 0 0 0 0 0 0 0 0 0 0 0 0 0 0 0 0 0 0 0 0 0 0 0 0 0 0 0 0 0 0 0 0 0 0 0 0 0
0 0 0 0 0 0 0 0 0 0 0 0 0 0 0 0 0 0 0 0 0 0 0 0 0 0 0 0 0 0 0 0 0 0 0 0 0 0 0 0 0 0 0 0
0 0 0 0 0 0 0 0 0 0 0 0 0 0 0 0 0 0 0 0 0 0 0 0 0 0 0 0 0 0 0 0 0 0 0 0 0 0 1 0 0 0 0 1
0 0 0 0 0 0 0 0 0 0 0 0 0 0 0 0 0 0 0 0 0 0 0 0 0 0 0 0 0 0 0 0 0 0 0 0 0 0 0 0 0 0 0 1
0 0 0 0 0 0 0 0 0 0 0 0 0 0 0 0 0 0 0 0 0 0 0 0 0 0 0 0 0 0 0 0 0 0 0 0 0 0 0 0 0 0 0 1
0 0 0 0 0 0 0 0 0 0 0 0 0 0 0 0 0 0 0 0 0 0 0 0 0 0 0 0 0 0 0 0 0 0 0 0 0 0 0 0 0 0 0 0
0 0 0 0 0 0 0 0 0 0 0 0 0 0 0 0 0 0 0 0 0 0 0 0 0 0 0 0 0 0 0 0 0 0 0 0 0 0 0 0 0 0 0 0
0 0 0 0 0 0 0 0 0 0 0 0 0 0 0 0 0 0 0 0 0 0 0 0 0 0 0 0 0 0 0 0 0 0 0 0 0 0 0 0 0 0 0 0
0 0 0 0 0 0 0 0 0 0 0 0 0 0 0 0 0 0 0 0 0 0 0 0 0 0 0 0 0 0 0 0 0 0 0 0 0 0 0 0 0 0 0 0
0 0 0 0 0 0 0 0 0 0 0 0 0 0 0 0 0 0 0 0 0 0 0 0 0 0 0 0 0 0 0 0 0 0 0 0 0 0 0 0 0 0 0 0
0 0 0 0 0 0 0 0 0 0 0 0 0 0 0 0 0 0 0 0 0 0 0 0 0 0 0 0 0 0 0 0 0 0 0 0 0 0 0 0 0 0 0 0
0 0 0 0 0 0 0 0 0 0 0 0 0 0 0 0 0 0 0 0 0 0 0 0 0 0 0 0 0 0 0 0 0 0 0 0 0 0 0 0 0 0 0 0
0 0 0 0 0 0 0 0 0 0 0 0 0 0 0 0 0 0 0 0 0 0 0 0 0 0 0 0 0 0 0 0 0 0 0 0 0 0 0 0 0 0 0 0
0 0 0 0 0 0 0 0 0 0 0 0 0 0 0 0 0 0 0 0 0 0 0 0 0 0 0 0 0 0 0 0 0 0 0 0 0 0 0 0 0 0 0 0
0 0 0 0 0 0 0 0 0 0 0 0 0 0 0 0 0 0 0 0 0 0 0 0 0 0 0 0 0 0 0 0 0 0 0 0 0 0 0 0 0 0 0 0
0 0 0 0 0 0 0 0 0 0 0 0 0 0 0 0 0 0 0 0 0 0 0 0 0 0 0 0 0 0 0 0 0 0 0 0 0 0 0 0 0 0 0 0
0 0 0 0 0 0 0 0 0 0 0 0 0 0 0 0 0 0 0 0 0 0 0 0 0 0 0 0 0 0 0 0 0 0 0 0 0 0 0 0 0 0 0 0
Wind_Speed
3 4 6 8 9 7 6 8 9 7 3 6 11 12 10 7 6 7 6 5 5 6 5 4 3 3 4 5 6 6 7 7 6 6 7 7 8 7 7 8 10 11 10 11
4 7 7 5 6 6 7 9 9 4 2 5 9 12 11 9 8 7 7 7 6 6 5 4 3 3 4 5 5 6 7 7 7 6 6 6 6 6 6 6 8 9 10 10
8 3 4 5 6 8 9 10 9 5 3 3 7 11 10 7 5 5 6 7 7 6 6 5 4 3 4 4 5 5 7 7 7 7 5 3 3 4 5 6 7 8 9 9
6 4 4 5 6 7 9 7 6 6 5 4 5 9 8 6 6 6 6 6 7 6 5 5 3 3 3 4 4 5 5 6 6 6 5 6 5 6 7 5 5 6 8 9
4 4 5 7 7 7 5 4 7 7 7 8 7 9 7 4 7 6 5 5 5 4 4 3 3 2 2 2 2 3 3 4 5 5 6 6 6 6 4 4 4 5 5 7
3 3 4 4 5 6 2 1 3 4 5 10 12 11 9 6 7 4 3 3 3 3 2 2 2 2 2 2 2 1 1 2 3 4 5 6 6 5 4 4 3 3 4 4
2 3 2 2 3 5 4 3 4 6 7 9 6 10 8 3 4 4 3 2 2 1 2 2 2 3 3 3 2 1 1 1 2 3 4 4 5 5 5 5 4 4 3 3
3 3 3 3 4 5 8 8 5 5 6 5 5 10 5 1 2 2 2 2 2 2 2 3 3 3 3 3 3 2 1 2 2 2 3 3 4 4 4 5 4 4 3 4
3 3 1 3 3 5 5 7 4 3 2 4 6 6 5 2 2 2 2 1 1 2 3 3 3 4 4 4 3 3 2 2 2 2 2 2 3 3 3 4 4 3 3 3
2 3 3 2 1 2 3 3 3 4 5 6 6 7 5 3 4 2 1 1 1 2 3 4 4 5 5 4 4 3 3 2 2 2 2 2 2 3 3 3 3 3 3 3
2 2 2 2 4 4 3 4 4 4 3 5 5 4 1 4 3 3 2 2 2 3 4 4 5 5 5 4 4 3 3 3 3 3 2 2 2 2 2 2 2 3 3 3
1 2 3 4 3 4 4 5 5 5 5 4 4 3 2 2 2 1 2 2 3 4 4 5 5 5 5 5 5 4 4 4 4 3 3 2 3 3 2 2 2 2 3 3
1 1 2 2 1 1 3 4 5 3 3 4 5 4 1 1 2 3 3 4 4 5 5 4 4 4 5 5 5 4 4 4 4 4 3 3 3 3 3 3 3 3 3 3
1 2 4 5 3 3 5 6 6 6 5 6 9 9 6 5 5 4 4 5 4 4 4 4 5 5 5 5 5 4 4 4 4 3 3 3 3 3 3 3 4 3 3 3
1 3 3 5 6 5 7 9 9 10 10 9 10 11 10 7 6 6 5 5 5 5 5 5 5 5 5 5 5 5 5 5 4 4 4 4 4 4 3 3 3 4 4 3
1 2 2 4 5 6 8 11 11 12 12 12 12 12 8 6 4 5 5 5 5 6 6 5 6 6 6 6 5 5 5 5 4 4 4 4 4 4 4 4 4 4 4 4
2 2 2 4 5 4 8 10 11 9 9 9 11 10 4 5 5 6 6 6 6 7 6 6 6 6 6 6 5 5 5 5 4 4 5 5 4 4 5 5 5 4 5 5
4 3 2 2 1 8 4 1 5 9 9 9 9 7 5 6 6 5 4 5 6 6 6 6 6 6 6 6 6 5 4 4 4 5 5 5 5 5 5 5 5 5 5 4
6 5 3 2 4 9 7 4 4 6 8 6 8 6 5 5 4 4 3 4 5 5 6 6 6 6 6 6 6 5 5 4 5 5 5 5 5 5 5 5 5 5 5 5
2 4 4 4 5 8 4 1 2 3 6 3 4 5 4 3 5 4 4 4 5 5 5 5 5 5 6 6 5 4 5 5 5 6 6 6 5 5 6 6 6 5 5 5
3 4 6 7 8 10 5 2 3 5 4 1 3 4 4 4 5 4 4 4 4 5 5 6 5 5 6 6 5 4 5 6 6 6 6 6 6 6 6 6 5 5 5 5
7 7 7 6 8 10 3 6 7 4 1 2 3 3 4 4 5 5 4 4 4 5 5 6 5 5 6 6 5 5 6 6 6 6 6 6 6 5 5 5 5 5 5 5
9 8 6 9 9 4 4 6 4 2 4 4 4 4 4 4 5 5 5 4 4 5 5 5 5 6 6 6 5 6 7 7 6 6 6 6 6 5 5 5 5 5 4 4
6 5 6 8 10 9 8 8 7 6 6 5 4 4 4 5 6 5 5 5 4 4 4 4 5 5 6 6 5 6 6 6 5 6 6 6 5 5 5 4 4 4 4 4
7 6 7 10 10 8 9 9 9 7 5 5 4 4 5 6 6 5 5 5 5 5 4 4 4 6 7 6 6 6 6 5 5 6 5 5 5 5 5 4 4 5 5 6
9 10 10 11 9 7 7 6 6 6 6 6 6 6 5 5 5 5 5 5 4 5 5 5 5 6 7 7 7 6 5 5 5 5 5 4 4 4 4 5 5 7 8 9
Wind_Direction
165 197 210 210 218 244 243 234 239 244 258 240 240 250 253 253 252 252 251 251 254 264 274 267 255 245 239 233 228 225 223 220 216 214 213 214 217 218 219 221 223 220 217 215
182 222 225 226 220 225 237 242 247 256 273 254 257 258 255 253 253 256 259 258 258 265 273 272 263 243 237 235 233 229 227 221 216 220 221 223 221 220 220 220 220 221 219 217
215 227 203 201 214 226 236 241 243 252 299 256 273 258 241 238 243 255 261 263 266 265 269 274 268 257 248 243 239 235 230 227 221 221 218 218 217 221 215 220 219 216 215 215
230 229 211 210 225 228 239 241 246 243 247 247 241 263 238 235 244 247 254 258 263 267 270 275 274 269 262 257 249 242 236 230 224 214 215 213 215 221 225 222 217 215 214 217
225 214 209 217 225 224 246 248 237 240 246 260 236 257 255 229 242 245 251 258 268 279 282 286 288 288 292 294 276 256 241 233 227 215 216 218 226 234 234 226 218 213 213 218
265 257 234 235 232 219 224 228 229 226 230 245 235 239 261 231 241 246 243 256 275 295 300 302 314 334 337 344 333 301 261 240 233 220 216 218 224 231 231 224 226 227 220 217
250 241 250 231 205 197 194 189 197 199 212 237 214 230 251 249 239 240 244 264 289 318 326 343 356 358 354 353 346 332 312 280 249 224 223 225 228 230 234 234 233 233 236 237
227 230 220 227 216 210 208 212 219 223 224 231 206 234 248 286 256 243 255 284 323 346 357 359 1 359 352 348 343 340 321 298 294 258 241 234 232 234 241 242 243 238 240 246
239 253 279 253 253 207 201 216 238 258 280 256 230 247 266 256 249 232 233 253 301 347 356 358 0 359 352 350 345 330 316 307 304 287 277 258 247 241 246 252 250 254 259 261
264 266 275 284 268 214 216 191 188 210 225 240 244 246 245 209 217 220 246 284 316 345 358 3 2 356 350 348 344 336 322 310 307 297 285 291 279 267 264 259 262 266 270 270
247 244 276 232 213 212 189 191 200 207 235 241 247 248 277 218 209 216 241 293 330 348 350 351 354 356 354 354 354 350 341 334 326 312 301 295 290 293 279 272 273 278 281 280
262 247 258 258 278 265 236 214 201 211 217 237 253 264 11 257 249 278 302 331 344 342 341 346 350 352 355 358 358 354 347 343 336 329 321 319 325 326 315 301 302 300 294 294
209 204 252 230 218 219 232 226 222 223 217 221 231 250 30 335 304 303 308 323 330 332 337 339 344 349 352 353 353 352 348 344 339 337 333 335 338 333 324 322 318 317 315 312
247 223 236 246 273 243 244 244 233 219 227 234 240 256 275 298 299 303 309 316 322 329 333 338 341 344 345 344 344 341 342 342 337 334 333 335 332 324 320 322 325 319 314 308
222 241 248 275 284 261 254 249 238 232 234 240 252 258 269 279 286 291 301 311 320 326 332 337 337 335 336 337 336 335 334 335 333 331 329 328 327 327 326 327 325 323 313 303
184 236 264 284 291 282 268 254 243 240 241 245 255 262 277 281 286 288 295 304 307 311 316 324 327 329 327 326 325 323 326 329 327 324 323 325 324 326 326 324 322 319 315 307
197 181 234 270 309 302 263 239 227 228 230 235 247 262 285 283 279 280 282 285 292 301 309 316 321 323 321 320 317 313 318 321 318 315 317 320 320 321 322 320 317 313 312 312
196 177 220 270 290 243 253 353 233 236 246 241 253 273 270 271 277 285 287 285 294 307 314 318 323 325 327 325 321 318 321 320 316 315 317 319 318 315 314 310 307 307 304 303
211 188 191 216 252 273 284 250 216 233 258 249 253 272 290 299 290 278 299 310 309 311 315 318 321 322 324 327 323 318 320 321 318 316 316 316 312 308 307 303 301 302 300 297
188 195 196 206 232 249 263 220 242 236 261 243 237 257 278 292 274 288 324 316 313 318 318 315 317 324 327 328 324 317 316 317 316 314 313 313 309 302 299 300 302 299 295 293
175 196 210 221 241 261 264 217 172 212 259 215 233 255 253 256 278 304 310 310 315 317 317 317 320 328 329 328 324 314 313 314 316 316 315 315 313 306 300 300 300 299 296 292
197 193 202 202 227 250 187 169 205 241 314 251 256 255 247 263 284 289 292 300 310 315 320 325 326 329 332 332 325 314 313 316 317 317 316 314 311 305 301 298 297 294 290 288
217 210 205 209 229 269 195 216 244 265 257 260 259 256 247 262 272 277 281 288 298 305 313 321 320 319 327 335 330 313 314 318 317 317 311 307 307 302 298 291 288 288 285 282
232 219 225 248 256 256 252 257 263 264 263 264 258 255 252 261 269 272 275 284 293 298 304 313 314 311 313 323 324 313 314 317 313 305 303 304 302 299 297 289 283 281 280 279
227 199 223 249 264 273 260 250 254 261 262 266 265 258 255 258 265 268 274 279 284 292 300 304 301 300 304 314 314 314 315 314 304 298 296 298 294 293 293 288 283 281 278 277
210 208 215 238 233 230 248 247 242 241 250 254 259 265 266 257 260 268 271 276 281 287 296 298 297 297 302 308 306 311 312 305 296 294 295 293 291 289 287 288 289 282 280 287